Time,TemperatureF,DewpointF,PressureIn,WindDirection,WindDirectionDegrees,WindSpeedMPH,WindSpeedGustMPH,Humidity,HourlyPrecipIn,Conditions,Clouds,dailyrainin,SoftwareType,DateUTC
2013-07-04 00:05:00,63.0,51.8,29.98,SSE,158,3.0,8.0,67,0.00,,,-99.99,Weather View 32 v60,2013-07-04 05:05:00,
2013-07-04 00:10:00,64.0,52.8,29.99,WSW,248,4.0,8.0,67,0.00,,,-99.99,Weather View 32 v60,2013-07-04 05:10:00,
2013-07-04 00:15:00,64.0,52.8,29.98,SSW,202,2.0,8.0,67,0.00,,,-99.99,Weather View 32 v60,2013-07-04 05:15:00,
2013-07-04 00:20:00,64.0,52.8,29.99,SSW,202,1.0,8.0,67,0.00,,,-99.99,Weather View 32 v60,2013-07-04 05:20:00,
2013-07-04 00:25:00,64.0,52.8,29.99,SSW,202,5.0,8.0,67,0.00,,,-99.99,Weather View 32 v60,2013-07-04 05:25:00,
2013-07-04 00:30:00,64.0,52.8,29.99,SW,225,2.0,8.0,67,0.00,,,-99.99,Weather View 32 v60,2013-07-04 05:30:00,
2013-07-04 00:35:00,63.0,51.8,29.99,SW,225,1.0,8.0,67,0.00,,,-99.99,Weather View 32 v60,2013-07-04 05:35:00,
2013-07-04 00:40:00,63.0,52.2,29.99,SW,225,4.0,8.0,68,0.00,,,-99.99,Weather View 32 v60,2013-07-04 05:40:00,
2013-07-04 00:45:00,63.0,52.6,29.99,WSW,248,3.0,7.0,69,0.00,,,-99.99,Weather View 32 v60,2013-07-04 05:45:00,
2013-07-04 00:50:00,63.0,52.6,29.99,SSE,158,2.0,7.0,69,0.00,,,-99.99,Weather View 32 v60,2013-07-04 05:50:00,
2013-07-04 00:55:00,63.0,53.0,29.99,SSW,202,1.0,7.0,70,0.00,,,-99.99,Weather View 32 v60,2013-07-04 05:55:00,
2013-07-04 01:05:00,63.0,53.0,29.99,SSW,202,3.0,7.0,70,0.00,,,-99.99,Weather View 32 v60,2013-07-04 06:05:00,
2013-07-04 01:10:00,63.0,53.4,29.99,South,180,2.0,7.0,71,0.00,,,-99.99,Weather View 32 v60,2013-07-04 06:10:00,
2013-07-04 01:15:00,63.0,53.4,29.99,SSW,202,1.0,6.0,71,0.00,,,-99.99,Weather View 32 v60,2013-07-04 06:15:00,
2013-07-04 01:20:00,63.0,53.4,29.99,SSW,202,3.0,6.0,71,0.00,,,-99.99,Weather View 32 v60,2013-07-04 06:20:00,
2013-07-04 01:25:00,63.0,53.8,29.99,SSW,202,3.0,7.0,72,0.00,,,-99.99,Weather View 32 v60,2013-07-04 06:25:00,
2013-07-04 01:30:00,63.0,53.8,29.99,SSW,202,5.0,7.0,72,0.00,,,-99.99,Weather View 32 v60,2013-07-04 06:30:00,
2013-07-04 01:40:00,62.0,52.8,29.98,South,180,4.0,7.0,72,0.00,,,-99.99,Weather View 32 v60,2013-07-04 06:40:00,
2013-07-04 01:45:00,62.0,52.8,29.98,SSW,202,2.0,7.0,72,0.00,,,-99.99,Weather View 32 v60,2013-07-04 06:45:00,
2013-07-04 01:50:00,62.0,52.8,29.98,SSW,202,3.0,7.0,72,0.00,,,-99.99,Weather View 32 v60,2013-07-04 06:50:00,
2013-07-04 01:55:00,62.0,53.2,29.98,South,180,3.0,7.0,73,0.00,,,-99.99,Weather View 32 v60,2013-07-04 06:55:00,
2013-07-04 02:00:00,62.0,53.2,29.98,South,180,3.0,7.0,73,0.00,,,-99.99,Weather View 32 v60,2013-07-04 07:00:00,
2013-07-04 02:10:00,62.0,53.2,29.98,SSW,202,2.0,7.0,73,0.00,,,-99.99,Weather View 32 v60,2013-07-04 07:10:00,
2013-07-04 02:20:00,62.0,53.2,29.98,South,180,4.0,7.0,73,0.00,,,-99.99,Weather View 32 v60,2013-07-04 07:20:00,
2013-07-04 02:30:00,62.0,53.2,29.98,South,180,2.0,6.0,73,0.00,,,-99.99,Weather View 32 v60,2013-07-04 07:30:00,
2013-07-04 02:35:00,62.0,53.2,29.98,WSW,248,1.0,6.0,73,0.00,,,-99.99,Weather View 32 v60,2013-07-04 07:35:00,
2013-07-04 02:40:00,62.0,53.2,29.98,SSW,202,3.0,6.0,73,0.00,,,-99.99,Weather View 32 v60,2013-07-04 07:40:00,
2013-07-04 02:45:00,61.0,52.3,29.98,South,180,1.0,6.0,73,0.00,,,-99.99,Weather View 32 v60,2013-07-04 07:45:00,
2013-07-04 02:50:00,61.0,52.6,29.97,South,180,2.0,6.0,74,0.00,,,-99.99,Weather View 32 v60,2013-07-04 07:50:00,
2013-07-04 02:55:00,61.0,52.6,29.97,SW,225,1.0,6.0,74,0.00,,,-99.99,Weather View 32 v60,2013-07-04 07:55:00,
2013-07-04 03:00:00,60.0,52.0,29.97,SSW,202,1.0,6.0,75,0.00,,,-99.99,Weather View 32 v60,2013-07-04 08:00:00,
2013-07-04 03:05:00,60.0,52.0,29.97,South,180,1.0,6.0,75,0.00,,,-99.99,Weather View 32 v60,2013-07-04 08:05:00,
2013-07-04 03:10:00,59.0,51.1,29.97,SSW,202,3.0,6.0,75,0.00,,,-99.99,Weather View 32 v60,2013-07-04 08:10:00,
2013-07-04 03:15:00,59.0,51.4,29.97,SW,225,1.0,6.0,76,0.00,,,-99.99,Weather View 32 v60,2013-07-04 08:15:00,
2013-07-04 03:20:00,59.0,51.8,29.97,South,180,1.0,6.0,77,0.00,,,-99.99,Weather View 32 v60,2013-07-04 08:20:00,
2013-07-04 03:25:00,59.0,51.8,29.97,SSW,202,1.0,6.0,77,0.00,,,-99.99,Weather View 32 v60,2013-07-04 08:25:00,
2013-07-04 03:30:00,58.0,51.2,29.97,SSE,158,5.0,7.0,78,0.00,,,-99.99,Weather View 32 v60,2013-07-04 08:30:00,
2013-07-04 03:35:00,58.0,51.2,29.97,SE,135,3.0,7.0,78,0.00,,,-99.99,Weather View 32 v60,2013-07-04 08:35:00,
2013-07-04 03:40:00,58.0,51.2,29.97,SSE,158,3.0,7.0,78,0.00,,,-99.99,Weather View 32 v60,2013-07-04 08:40:00,
2013-07-04 03:45:00,58.0,51.2,29.97,SSE,158,2.0,7.0,78,0.00,,,-99.99,Weather View 32 v60,2013-07-04 08:45:00,
2013-07-04 03:50:00,58.0,51.5,29.97,SW,225,0.0,7.0,79,0.00,,,-99.99,Weather View 32 v60,2013-07-04 08:50:00,
2013-07-04 03:55:00,58.0,51.5,29.97,SW,225,1.0,7.0,79,0.00,,,-99.99,Weather View 32 v60,2013-07-04 08:55:00,
2013-07-04 04:00:00,58.0,51.5,29.97,West,270,1.0,7.0,79,0.00,,,-99.99,Weather View 32 v60,2013-07-04 09:00:00,
2013-07-04 04:10:00,57.0,50.9,29.97,SSW,202,0.0,7.0,80,0.00,,,-99.99,Weather View 32 v60,2013-07-04 09:10:00,
2013-07-04 04:15:00,57.0,50.9,29.97,SSW,202,0.0,7.0,80,0.00,,,-99.99,Weather View 32 v60,2013-07-04 09:15:00,
2013-07-04 04:20:00,57.0,50.9,29.97,WSW,248,1.0,7.0,80,0.00,,,-99.99,Weather View 32 v60,2013-07-04 09:20:00,
2013-07-04 04:25:00,57.0,51.2,29.97,WSW,248,1.0,7.0,81,0.00,,,-99.99,Weather View 32 v60,2013-07-04 09:25:00,
2013-07-04 04:30:00,56.0,50.2,29.97,SW,225,1.0,7.0,81,0.00,,,-99.99,Weather View 32 v60,2013-07-04 09:30:00,
2013-07-04 04:35:00,56.0,50.2,29.98,SW,225,1.0,5.0,81,0.00,,,-99.99,Weather View 32 v60,2013-07-04 09:35:00,
2013-07-04 04:45:00,56.0,50.6,29.97,SW,225,1.0,5.0,82,0.00,,,-99.99,Weather View 32 v60,2013-07-04 09:45:00,
2013-07-04 04:50:00,56.0,50.6,29.97,West,270,2.0,6.0,82,0.00,,,-99.99,Weather View 32 v60,2013-07-04 09:50:00,
2013-07-04 04:55:00,56.0,50.6,29.97,SW,225,1.0,6.0,82,0.00,,,-99.99,Weather View 32 v60,2013-07-04 09:55:00,
2013-07-04 05:05:00,57.0,51.9,29.97,South,180,5.0,7.0,83,0.00,,,-99.99,Weather View 32 v60,2013-07-04 10:05:00,
2013-07-04 05:10:00,57.0,51.9,29.97,SW,225,3.0,7.0,83,0.00,,,-99.99,Weather View 32 v60,2013-07-04 10:10:00,
2013-07-04 05:15:00,57.0,51.9,29.97,SW,225,1.0,7.0,83,0.00,,,-99.99,Weather View 32 v60,2013-07-04 10:15:00,
2013-07-04 05:20:00,57.0,51.9,29.97,SSE,158,2.0,7.0,83,0.00,,,-99.99,Weather View 32 v60,2013-07-04 10:20:00,
2013-07-04 05:25:00,57.0,51.5,29.97,South,180,2.0,7.0,82,0.00,,,-99.99,Weather View 32 v60,2013-07-04 10:25:00,
2013-07-04 05:30:00,57.0,51.5,29.97,WSW,248,1.0,7.0,82,0.00,,,-99.99,Weather View 32 v60,2013-07-04 10:30:00,
2013-07-04 05:35:00,57.0,51.5,29.98,SSW,202,1.0,7.0,82,0.00,,,-99.99,Weather View 32 v60,2013-07-04 10:35:00,
2013-07-04 05:40:00,57.0,51.5,29.97,SW,225,2.0,7.0,82,0.00,,,-99.99,Weather View 32 v60,2013-07-04 10:40:00,
2013-07-04 05:50:00,58.0,52.5,29.98,SSW,202,3.0,7.0,82,0.00,,,-99.99,Weather View 32 v60,2013-07-04 10:50:00,
2013-07-04 05:55:00,58.0,52.9,29.98,SW,225,4.0,7.0,83,0.00,,,-99.99,Weather View 32 v60,2013-07-04 10:55:00,
2013-07-04 06:05:00,59.0,53.5,29.97,SW,225,2.0,8.0,82,0.00,,,-99.99,Weather View 32 v60,2013-07-04 11:05:00,
2013-07-04 06:10:00,60.0,54.1,29.97,SSW,202,5.0,8.0,81,0.00,,,-99.99,Weather View 32 v60,2013-07-04 11:10:00,
2013-07-04 06:20:00,60.0,53.8,29.98,SW,225,1.0,8.0,80,0.00,,,-99.99,Weather View 32 v60,2013-07-04 11:20:00,
2013-07-04 06:25:00,60.0,53.8,29.97,SSW,202,3.0,8.0,80,0.00,,,-99.99,Weather View 32 v60,2013-07-04 11:25:00,
2013-07-04 06:30:00,60.0,53.8,29.97,SW,225,3.0,8.0,80,0.00,,,-99.99,Weather View 32 v60,2013-07-04 11:30:00,
2013-07-04 06:35:00,60.0,53.8,29.98,SW,225,2.0,8.0,80,0.00,,,-99.99,Weather View 32 v60,2013-07-04 11:35:00,
2013-07-04 06:45:00,61.0,54.4,29.98,WSW,248,2.0,8.0,79,0.00,,,-99.99,Weather View 32 v60,2013-07-04 11:45:00,
2013-07-04 06:50:00,61.0,54.4,29.98,SW,225,3.0,8.0,79,0.00,,,-99.99,Weather View 32 v60,2013-07-04 11:50:00,
2013-07-04 06:55:00,62.0,55.0,29.98,SW,225,4.0,8.0,78,0.00,,,-99.99,Weather View 32 v60,2013-07-04 11:55:00,
2013-07-04 07:00:00,62.0,55.0,29.98,SSE,158,3.0,7.0,78,0.00,,,-99.99,Weather View 32 v60,2013-07-04 12:00:00,
2013-07-04 07:05:00,62.0,54.7,29.97,South,180,2.0,6.0,77,0.00,,,-99.99,Weather View 32 v60,2013-07-04 12:05:00,
2013-07-04 07:13:00,63.0,55.7,29.98,SSW,202,5.0,6.0,77,0.00,,,-99.99,Weather View 32 v60,2013-07-04 12:13:00,
2013-07-04 07:20:00,66.0,57.8,29.98,SW,225,4.0,7.0,75,0.00,,,-99.99,Weather View 32 v60,2013-07-04 12:20:00,
2013-07-04 07:25:00,67.0,58.4,29.98,SSW,202,2.0,7.0,74,0.00,,,-99.99,Weather View 32 v60,2013-07-04 12:25:00,
2013-07-04 07:35:00,68.0,58.2,29.98,SW,225,2.0,7.0,71,0.00,,,-99.99,Weather View 32 v60,2013-07-04 12:35:00,
2013-07-04 07:40:00,69.0,58.4,29.98,South,180,3.0,7.0,69,0.00,,,-99.99,Weather View 32 v60,2013-07-04 12:40:00,
2013-07-04 07:45:00,70.0,59.3,29.98,WSW,248,2.0,7.0,69,0.00,,,-99.99,Weather View 32 v60,2013-07-04 12:45:00,
2013-07-04 07:50:00,70.0,58.5,29.98,WSW,248,3.0,7.0,67,0.00,,,-99.99,Weather View 32 v60,2013-07-04 12:50:00,
2013-07-04 07:55:00,70.0,58.1,29.98,SW,225,3.0,7.0,66,0.00,,,-99.99,Weather View 32 v60,2013-07-04 12:55:00,
2013-07-04 08:00:00,71.0,58.6,29.98,West,270,1.0,7.0,65,0.00,,,-99.99,Weather View 32 v60,2013-07-04 13:00:00,
2013-07-04 08:05:00,71.0,58.2,29.98,WSW,248,3.0,7.0,64,0.00,,,-99.99,Weather View 32 v60,2013-07-04 13:05:00,
2013-07-04 08:14:00,71.0,58.2,29.98,WSW,248,1.0,7.0,64,0.00,,,-99.99,Weather View 32 v60,2013-07-04 13:14:00,
2013-07-04 08:20:00,71.0,57.3,29.97,SW,225,4.0,9.0,62,0.00,,,-99.99,Weather View 32 v60,2013-07-04 13:20:00,
2013-07-04 08:25:00,72.0,58.2,29.97,South,180,3.0,9.0,62,0.00,,,-99.99,Weather View 32 v60,2013-07-04 13:25:00,
2013-07-04 08:35:00,73.0,59.2,29.97,SW,225,5.0,9.0,62,0.00,,,-99.99,Weather View 32 v60,2013-07-04 13:35:00,
2013-07-04 08:40:00,73.0,58.2,29.97,SW,225,3.0,9.0,60,0.00,,,-99.99,Weather View 32 v60,2013-07-04 13:40:00,
2013-07-04 08:50:00,72.0,56.8,29.97,SW,225,3.0,10.0,59,0.00,,,-99.99,Weather View 32 v60,2013-07-04 13:50:00,
2013-07-04 08:55:00,72.0,56.8,29.97,SSE,158,2.0,10.0,59,0.00,,,-99.99,Weather View 32 v60,2013-07-04 13:55:00,
2013-07-04 09:00:00,72.0,57.3,29.97,West,270,6.0,10.0,60,0.00,,,-99.99,Weather View 32 v60,2013-07-04 14:00:00,
2013-07-04 09:10:00,74.0,58.7,29.97,NW,315,3.0,10.0,59,0.00,,,-99.99,Weather View 32 v60,2013-07-04 14:10:00,
2013-07-04 09:15:00,74.0,57.8,29.97,WSW,248,3.0,10.0,57,0.00,,,-99.99,Weather View 32 v60,2013-07-04 14:15:00,
2013-07-04 09:20:00,74.0,57.8,29.97,South,180,6.0,10.0,57,0.00,,,-99.99,Weather View 32 v60,2013-07-04 14:20:00,
2013-07-04 09:25:00,75.0,59.2,29.97,SSW,202,5.0,10.0,58,0.00,,,-99.99,Weather View 32 v60,2013-07-04 14:25:00,
2013-07-04 09:35:00,75.0,58.2,29.96,WNW,292,3.0,10.0,56,0.00,,,-99.99,Weather View 32 v60,2013-07-04 14:35:00,
2013-07-04 09:40:00,74.0,57.3,29.96,West,270,4.0,10.0,56,0.00,,,-99.99,Weather View 32 v60,2013-07-04 14:40:00,
2013-07-04 09:45:00,75.0,58.7,29.96,SW,225,5.0,10.0,57,0.00,,,-99.99,Weather View 32 v60,2013-07-04 14:45:00,
2013-07-04 09:50:00,75.0,58.7,29.96,SW,225,4.0,10.0,57,0.00,,,-99.99,Weather View 32 v60,2013-07-04 14:50:00,
2013-07-04 10:00:00,77.0,59.5,29.96,SW,225,2.0,10.0,55,0.00,,,-99.99,Weather View 32 v60,2013-07-04 15:00:00,
2013-07-04 10:05:00,77.0,59.0,29.96,SW,225,6.0,11.0,54,0.00,,,-99.99,Weather View 32 v60,2013-07-04 15:05:00,
2013-07-04 10:15:00,77.0,59.5,29.96,WSW,248,2.0,11.0,55,0.00,,,-99.99,Weather View 32 v60,2013-07-04 15:15:00,
2013-07-04 10:20:00,77.0,59.0,29.96,WNW,292,3.0,11.0,54,0.00,,,-99.99,Weather View 32 v60,2013-07-04 15:20:00,
2013-07-04 10:25:00,77.0,59.0,29.96,SW,225,3.0,11.0,54,0.00,,,-99.99,Weather View 32 v60,2013-07-04 15:25:00,
2013-07-04 10:35:00,78.0,60.0,29.95,South,180,2.0,11.0,54,0.00,,,-99.99,Weather View 32 v60,2013-07-04 15:35:00,
2013-07-04 10:40:00,78.0,59.4,29.95,SSW,202,3.0,11.0,53,0.00,,,-99.99,Weather View 32 v60,2013-07-04 15:40:00,
2013-07-04 10:45:00,78.0,59.4,29.95,WSW,248,5.0,11.0,53,0.00,,,-99.99,Weather View 32 v60,2013-07-04 15:45:00,
2013-07-04 10:50:00,78.0,59.4,29.95,SW,225,3.0,11.0,53,0.00,,,-99.99,Weather View 32 v60,2013-07-04 15:50:00,
2013-07-04 11:00:00,78.0,58.9,29.95,SSW,202,3.0,11.0,52,0.00,,,-99.99,Weather View 32 v60,2013-07-04 16:00:00,
2013-07-04 11:05:00,78.0,59.4,29.95,SSW,202,4.0,11.0,53,0.00,,,-99.99,Weather View 32 v60,2013-07-04 16:05:00,
2013-07-04 11:10:00,79.0,60.3,29.95,SSW,202,3.0,9.0,53,0.00,,,-99.99,Weather View 32 v60,2013-07-04 16:10:00,
2013-07-04 11:16:00,79.0,59.8,29.94,SSW,202,5.0,10.0,52,0.00,,,-99.99,Weather View 32 v60,2013-07-04 16:16:00,
2013-07-04 11:25:00,79.0,59.8,29.94,WSW,248,4.0,10.0,52,0.00,,,-99.99,Weather View 32 v60,2013-07-04 16:25:00,
2013-07-04 11:30:00,79.0,59.8,29.94,WSW,248,2.0,10.0,52,0.00,,,-99.99,Weather View 32 v60,2013-07-04 16:30:00,
2013-07-04 11:35:00,80.0,60.7,29.94,SW,225,4.0,10.0,52,0.00,,,-99.99,Weather View 32 v60,2013-07-04 16:35:00,
2013-07-04 11:40:00,80.0,60.2,29.94,South,180,2.0,10.0,51,0.00,,,-99.99,Weather View 32 v60,2013-07-04 16:40:00,
2013-07-04 11:45:00,80.0,60.2,29.94,WSW,248,6.0,10.0,51,0.00,,,-99.99,Weather View 32 v60,2013-07-04 16:45:00,
2013-07-04 11:50:00,80.0,60.2,29.94,SSW,202,2.0,10.0,51,0.00,,,-99.99,Weather View 32 v60,2013-07-04 16:50:00,
2013-07-04 11:55:00,80.0,60.2,29.94,SSE,158,3.0,10.0,51,0.00,,,-99.99,Weather View 32 v60,2013-07-04 16:55:00,
2013-07-04 12:00:00,81.0,60.5,29.94,SSW,202,4.0,10.0,50,0.00,,,-99.99,Weather View 32 v60,2013-07-04 17:00:00,
2013-07-04 12:10:00,81.0,60.5,29.94,SSW,202,8.0,10.0,50,0.00,,,-99.99,Weather View 32 v60,2013-07-04 17:10:00,
2013-07-04 12:15:00,81.0,60.5,29.94,SSW,202,8.0,14.0,50,0.00,,,-99.99,Weather View 32 v60,2013-07-04 17:15:00,
2013-07-04 12:25:00,81.0,60.5,29.94,SSW,202,5.0,14.0,50,0.00,,,-99.99,Weather View 32 v60,2013-07-04 17:25:00,
2013-07-04 12:30:00,82.0,60.9,29.94,SW,225,5.0,14.0,49,0.00,,,-99.99,Weather View 32 v60,2013-07-04 17:30:00,
2013-07-04 12:35:00,82.0,60.9,29.94,SSW,202,3.0,14.0,49,0.00,,,-99.99,Weather View 32 v60,2013-07-04 17:35:00,
2013-07-04 12:40:00,82.0,60.3,29.93,WNW,292,5.0,14.0,48,0.00,,,-99.99,Weather View 32 v60,2013-07-04 17:40:00,
2013-07-04 12:45:00,83.0,61.2,29.93,West,270,7.0,14.0,48,0.00,,,-99.99,Weather View 32 v60,2013-07-04 17:45:00,
2013-07-04 12:55:00,83.0,61.2,29.93,WSW,248,3.0,14.0,48,0.00,,,-99.99,Weather View 32 v60,2013-07-04 17:55:00,
2013-07-04 13:00:00,83.0,60.6,29.93,WSW,248,8.0,14.0,47,0.00,,,-99.99,Weather View 32 v60,2013-07-04 18:00:00,
2013-07-04 13:10:00,84.0,60.9,29.93,SSW,202,6.0,14.0,46,0.00,,,-99.99,Weather View 32 v60,2013-07-04 18:10:00,
2013-07-04 13:15:00,84.0,60.9,29.93,SW,225,2.0,13.0,46,0.00,,,-99.99,Weather View 32 v60,2013-07-04 18:15:00,
2013-07-04 13:20:00,84.0,59.7,29.93,WNW,292,2.0,13.0,44,0.00,,,-99.99,Weather View 32 v60,2013-07-04 18:20:00,
2013-07-04 13:30:00,84.0,59.7,29.93,WSW,248,2.0,13.0,44,0.00,,,-99.99,Weather View 32 v60,2013-07-04 18:30:00,
2013-07-04 13:35:00,85.0,60.6,29.92,SW,225,5.0,13.0,44,0.00,,,-99.99,Weather View 32 v60,2013-07-04 18:35:00,
2013-07-04 13:40:00,85.0,60.6,29.92,South,180,3.0,13.0,44,0.00,,,-99.99,Weather View 32 v60,2013-07-04 18:40:00,
2013-07-04 13:50:00,85.0,59.3,29.92,SSW,202,5.0,13.0,42,0.00,,,-99.99,Weather View 32 v60,2013-07-04 18:50:00,
2013-07-04 14:00:00,86.0,59.5,29.92,WSW,248,6.0,13.0,41,0.00,,,-99.99,Weather View 32 v60,2013-07-04 19:00:00,
2013-07-04 14:05:00,87.0,60.4,29.92,SSE,158,4.0,13.0,41,0.00,,,-99.99,Weather View 32 v60,2013-07-04 19:05:00,
2013-07-04 14:10:00,87.0,59.0,29.91,SW,225,3.0,13.0,39,0.00,,,-99.99,Weather View 32 v60,2013-07-04 19:10:00,
2013-07-04 14:15:00,87.0,57.5,29.91,SW,225,6.0,13.0,37,0.00,,,-99.99,Weather View 32 v60,2013-07-04 19:15:00,
2013-07-04 14:20:00,86.0,55.8,29.91,SW,225,6.0,13.0,36,0.00,,,-99.99,Weather View 32 v60,2013-07-04 19:20:00,
2013-07-04 14:25:00,86.0,55.8,29.91,WSW,248,6.0,13.0,36,0.00,,,-99.99,Weather View 32 v60,2013-07-04 19:25:00,
2013-07-04 14:35:00,86.0,57.3,29.91,SSW,202,5.0,13.0,38,0.00,,,-99.99,Weather View 32 v60,2013-07-04 19:35:00,
2013-07-04 14:40:00,86.0,55.8,29.91,WSW,248,3.0,13.0,36,0.00,,,-99.99,Weather View 32 v60,2013-07-04 19:40:00,
2013-07-04 14:50:00,87.0,56.7,29.91,West,270,4.0,14.0,36,0.00,,,-99.99,Weather View 32 v60,2013-07-04 19:50:00,
2013-07-04 14:55:00,87.0,57.5,29.91,WNW,292,7.0,14.0,37,0.00,,,-99.99,Weather View 32 v60,2013-07-04 19:55:00,
2013-07-04 15:05:00,87.0,56.7,29.91,WNW,292,6.0,14.0,36,0.00,,,-99.99,Weather View 32 v60,2013-07-04 20:05:00,
2013-07-04 15:10:00,87.0,58.2,29.91,WNW,292,3.0,14.0,38,0.00,,,-99.99,Weather View 32 v60,2013-07-04 20:10:00,
2013-07-04 15:18:00,87.0,56.7,29.91,SSW,202,6.0,14.0,36,0.00,,,-99.99,Weather View 32 v60,2013-07-04 20:18:00,
2013-07-04 15:25:00,86.0,55.8,29.91,WNW,292,6.0,16.0,36,0.00,,,-99.99,Weather View 32 v60,2013-07-04 20:25:00,
2013-07-04 15:30:00,85.0,55.7,29.90,South,180,1.0,16.0,37,0.00,,,-99.99,Weather View 32 v60,2013-07-04 20:30:00,
2013-07-04 15:40:00,86.0,55.8,29.90,West,270,4.0,16.0,36,0.00,,,-99.99,Weather View 32 v60,2013-07-04 20:40:00,
2013-07-04 15:45:00,86.0,56.6,29.91,WSW,248,6.0,16.0,37,0.00,,,-99.99,Weather View 32 v60,2013-07-04 20:45:00,
2013-07-04 15:55:00,87.0,55.9,29.90,SW,225,8.0,17.0,35,0.00,,,-99.99,Weather View 32 v60,2013-07-04 20:55:00,
2013-07-04 16:00:00,87.0,55.9,29.90,WSW,248,3.0,17.0,35,0.00,,,-99.99,Weather View 32 v60,2013-07-04 21:00:00,
2013-07-04 16:10:00,87.0,55.1,29.90,WSW,248,7.0,17.0,34,0.00,,,-99.99,Weather View 32 v60,2013-07-04 21:10:00,
2013-07-04 16:15:00,87.0,55.1,29.90,WSW,248,10.0,18.0,34,0.00,,,-99.99,Weather View 32 v60,2013-07-04 21:15:00,
2013-07-04 16:20:00,86.0,54.3,29.90,WNW,292,5.0,18.0,34,0.00,,,-99.99,Weather View 32 v60,2013-07-04 21:20:00,
2013-07-04 16:25:00,87.0,55.9,29.89,SSW,202,5.0,18.0,35,0.00,,,-99.99,Weather View 32 v60,2013-07-04 21:25:00,
2013-07-04 16:30:00,87.0,55.9,29.90,WSW,248,5.0,18.0,35,0.00,,,-99.99,Weather View 32 v60,2013-07-04 21:30:00,
2013-07-04 16:35:00,87.0,55.1,29.89,West,270,5.0,18.0,34,0.00,,,-99.99,Weather View 32 v60,2013-07-04 21:35:00,
2013-07-04 16:40:00,87.0,55.9,29.89,SW,225,6.0,18.0,35,0.00,,,-99.99,Weather View 32 v60,2013-07-04 21:40:00,
2013-07-04 16:45:00,87.0,55.9,29.89,SSW,202,4.0,18.0,35,0.00,,,-99.99,Weather View 32 v60,2013-07-04 21:45:00,
2013-07-04 16:50:00,87.0,55.1,29.89,SW,225,6.0,18.0,34,0.00,,,-99.99,Weather View 32 v60,2013-07-04 21:50:00,
2013-07-04 16:55:00,88.0,56.0,29.89,South,180,8.0,18.0,34,0.00,,,-99.99,Weather View 32 v60,2013-07-04 21:55:00,
2013-07-04 17:05:00,87.0,53.5,29.89,SW,225,3.0,18.0,32,0.00,,,-99.99,Weather View 32 v60,2013-07-04 22:05:00,
2013-07-04 17:10:00,87.0,54.3,29.89,SW,225,6.0,18.0,33,0.00,,,-99.99,Weather View 32 v60,2013-07-04 22:10:00,
2013-07-04 17:15:00,87.0,54.3,29.89,WNW,292,3.0,14.0,33,0.00,,,-99.99,Weather View 32 v60,2013-07-04 22:15:00,
2013-07-04 17:20:00,87.0,54.3,29.89,WNW,292,3.0,14.0,33,0.00,,,-99.99,Weather View 32 v60,2013-07-04 22:20:00,
2013-07-04 17:25:00,87.0,53.5,29.89,SSW,202,3.0,16.0,32,0.00,,,-99.99,Weather View 32 v60,2013-07-04 22:25:00,
2013-07-04 17:35:00,87.0,54.3,29.88,SSW,202,5.0,16.0,33,0.00,,,-99.99,Weather View 32 v60,2013-07-04 22:35:00,
2013-07-04 17:40:00,87.0,54.3,29.88,West,270,7.0,16.0,33,0.00,,,-99.99,Weather View 32 v60,2013-07-04 22:40:00,
2013-07-04 17:45:00,86.0,53.4,29.88,East,90,2.0,16.0,33,0.00,,,-99.99,Weather View 32 v60,2013-07-04 22:45:00,
2013-07-04 17:55:00,86.0,54.3,29.88,SW,225,3.0,16.0,34,0.00,,,-99.99,Weather View 32 v60,2013-07-04 22:55:00,
2013-07-04 18:00:00,85.0,53.4,29.88,SSW,202,4.0,16.0,34,0.00,,,-99.99,Weather View 32 v60,2013-07-04 23:00:00,
2013-07-04 18:10:00,85.0,53.4,29.88,WSW,248,3.0,16.0,34,0.00,,,-99.99,Weather View 32 v60,2013-07-04 23:10:00,
2013-07-04 18:15:00,86.0,53.4,29.88,SSW,202,5.0,16.0,33,0.00,,,-99.99,Weather View 32 v60,2013-07-04 23:15:00,
2013-07-04 18:20:00,85.0,53.4,29.88,SSW,202,5.0,16.0,34,0.00,,,-99.99,Weather View 32 v60,2013-07-04 23:20:00,
2013-07-04 18:25:00,85.0,54.2,29.88,SW,225,5.0,14.0,35,0.00,,,-99.99,Weather View 32 v60,2013-07-04 23:25:00,
2013-07-04 18:35:00,84.0,54.8,29.88,SSW,202,5.0,14.0,37,0.00,,,-99.99,Weather View 32 v60,2013-07-04 23:35:00,
2013-07-04 18:40:00,84.0,54.8,29.88,South,180,5.0,14.0,37,0.00,,,-99.99,Weather View 32 v60,2013-07-04 23:40:00,
2013-07-04 18:45:00,84.0,55.6,29.88,SSE,158,5.0,14.0,38,0.00,,,-99.99,Weather View 32 v60,2013-07-04 23:45:00,
2013-07-04 18:50:00,83.0,54.7,29.88,SSW,202,3.0,14.0,38,0.00,,,-99.99,Weather View 32 v60,2013-07-04 23:50:00,
2013-07-04 19:00:00,83.0,55.4,29.88,SW,225,5.0,14.0,39,0.00,,,-99.99,Weather View 32 v60,2013-07-05 00:00:00,
2013-07-04 19:05:00,83.0,56.1,29.88,SSW,202,5.0,14.0,40,0.00,,,-99.99,Weather View 32 v60,2013-07-05 00:05:00,
2013-07-04 19:10:00,83.0,56.1,29.88,SW,225,4.0,14.0,40,0.00,,,-99.99,Weather View 32 v60,2013-07-05 00:10:00,
2013-07-04 19:20:00,83.0,55.4,29.88,SSW,202,4.0,12.0,39,0.00,,,-99.99,Weather View 32 v60,2013-07-05 00:20:00,
2013-07-04 19:25:00,83.0,56.1,29.88,SW,225,3.0,12.0,40,0.00,,,-99.99,Weather View 32 v60,2013-07-05 00:25:00,
2013-07-04 19:30:00,83.0,56.1,29.88,SSW,202,5.0,12.0,40,0.00,,,-99.99,Weather View 32 v60,2013-07-05 00:30:00,
2013-07-04 19:35:00,83.0,56.8,29.88,West,270,2.0,12.0,41,0.00,,,-99.99,Weather View 32 v60,2013-07-05 00:35:00,
2013-07-04 19:40:00,82.0,55.9,29.88,West,270,3.0,12.0,41,0.00,,,-99.99,Weather View 32 v60,2013-07-05 00:40:00,
2013-07-04 19:50:00,81.0,56.3,29.88,SSW,202,1.0,12.0,43,0.00,,,-99.99,Weather View 32 v60,2013-07-05 00:50:00,
2013-07-04 19:55:00,81.0,56.3,29.88,SSW,202,3.0,12.0,43,0.00,,,-99.99,Weather View 32 v60,2013-07-05 00:55:00,
2013-07-04 20:05:00,80.0,56.7,29.88,South,180,3.0,12.0,45,0.00,,,-99.99,Weather View 32 v60,2013-07-05 01:05:00,
2013-07-04 20:10:00,80.0,56.7,29.88,South,180,3.0,12.0,45,0.00,,,-99.99,Weather View 32 v60,2013-07-05 01:10:00,
2013-07-04 20:20:00,79.0,57.0,29.88,SW,225,2.0,10.0,47,0.00,,,-99.99,Weather View 32 v60,2013-07-05 01:20:00,
2013-07-04 20:30:00,78.0,56.7,29.88,SSW,202,3.0,10.0,48,0.00,,,-99.99,Weather View 32 v60,2013-07-05 01:30:00,
2013-07-04 20:35:00,77.0,55.7,29.88,South,180,3.0,10.0,48,0.00,,,-99.99,Weather View 32 v60,2013-07-05 01:35:00,
2013-07-04 20:40:00,77.0,55.7,29.88,South,180,1.0,10.0,48,0.00,,,-99.99,Weather View 32 v60,2013-07-05 01:40:00,
2013-07-04 20:50:00,77.0,56.3,29.88,SW,225,1.0,6.0,49,0.00,,,-99.99,Weather View 32 v60,2013-07-05 01:50:00,
2013-07-04 20:55:00,76.0,55.4,29.88,SSW,202,3.0,6.0,49,0.00,,,-99.99,Weather View 32 v60,2013-07-05 01:55:00,
2013-07-04 21:05:00,76.0,55.4,29.88,SSW,202,3.0,6.0,49,0.00,,,-99.99,Weather View 32 v60,2013-07-05 02:05:00,
2013-07-04 21:10:00,75.0,55.0,29.88,WSW,248,2.0,6.0,50,0.00,,,-99.99,Weather View 32 v60,2013-07-05 02:10:00,
2013-07-04 21:20:00,75.0,55.6,29.88,South,180,3.0,6.0,51,0.00,,,-99.99,Weather View 32 v60,2013-07-05 02:20:00,
2013-07-04 21:25:00,75.0,55.6,29.88,SW,225,1.0,6.0,51,0.00,,,-99.99,Weather View 32 v60,2013-07-05 02:25:00,
2013-07-04 21:30:00,74.0,54.7,29.88,SW,225,3.0,8.0,51,0.00,,,-99.99,Weather View 32 v60,2013-07-05 02:30:00,
2013-07-04 21:40:00,74.0,55.2,29.89,SSW,202,3.0,8.0,52,0.00,,,-99.99,Weather View 32 v60,2013-07-05 02:40:00,
2013-07-04 21:45:00,74.0,55.2,29.89,SSE,158,5.0,8.0,52,0.00,,,-99.99,Weather View 32 v60,2013-07-05 02:45:00,
2013-07-04 21:50:00,74.0,55.2,29.89,SSW,202,3.0,8.0,52,0.00,,,-99.99,Weather View 32 v60,2013-07-05 02:50:00,
2013-07-04 22:00:00,75.0,55.6,29.89,SSW,202,3.0,9.0,51,0.00,,,-99.99,Weather View 32 v60,2013-07-05 03:00:00,
2013-07-04 22:05:00,74.0,54.7,29.89,South,180,4.0,9.0,51,0.00,,,-99.99,Weather View 32 v60,2013-07-05 03:05:00,
2013-07-04 22:15:00,74.0,55.2,29.89,SSE,158,5.0,9.0,52,0.00,,,-99.99,Weather View 32 v60,2013-07-05 03:15:00,
2013-07-04 22:20:00,74.0,55.2,29.89,South,180,6.0,9.0,52,0.00,,,-99.99,Weather View 32 v60,2013-07-05 03:20:00,
2013-07-04 22:25:00,74.0,55.7,29.89,SW,225,1.0,10.0,53,0.00,,,-99.99,Weather View 32 v60,2013-07-05 03:25:00,
2013-07-04 22:30:00,74.0,55.7,29.89,SSW,202,3.0,10.0,53,0.00,,,-99.99,Weather View 32 v60,2013-07-05 03:30:00,
2013-07-04 22:35:00,74.0,55.7,29.89,SSW,202,3.0,10.0,53,0.00,,,-99.99,Weather View 32 v60,2013-07-05 03:35:00,
2013-07-04 22:45:00,73.0,55.3,29.90,South,180,6.0,10.0,54,0.00,,,-99.99,Weather View 32 v60,2013-07-05 03:45:00,
2013-07-04 22:50:00,73.0,55.3,29.90,West,270,3.0,10.0,54,0.00,,,-99.99,Weather View 32 v60,2013-07-05 03:50:00,
2013-07-04 22:55:00,73.0,55.3,29.90,SSW,202,2.0,10.0,54,0.00,,,-99.99,Weather View 32 v60,2013-07-05 03:55:00,
2013-07-04 23:05:00,73.0,55.3,29.90,SSW,202,4.0,10.0,54,0.00,,,-99.99,Weather View 32 v60,2013-07-05 04:05:00,
2013-07-04 23:10:00,73.0,55.3,29.90,South,180,3.0,10.0,54,0.00,,,-99.99,Weather View 32 v60,2013-07-05 04:10:00,
2013-07-04 23:15:00,73.0,55.8,29.90,WSW,248,3.0,10.0,55,0.00,,,-99.99,Weather View 32 v60,2013-07-05 04:15:00,
2013-07-04 23:20:00,73.0,55.8,29.90,SW,225,6.0,10.0,55,0.00,,,-99.99,Weather View 32 v60,2013-07-05 04:20:00,
2013-07-04 23:22:00,73.0,55.8,29.90,SW,225,6.0,10.0,55,0.00,,,-99.99,Weather View 32 v60,2013-07-05 04:22:00,
2013-07-04 23:25:00,73.0,55.8,29.90,SSW,202,3.0,10.0,55,0.00,,,-99.99,Weather View 32 v60,2013-07-05 04:25:00,
2013-07-04 23:30:00,72.0,54.9,29.90,South,180,4.0,10.0,55,0.00,,,-99.99,Weather View 32 v60,2013-07-05 04:30:00,
2013-07-04 23:40:00,72.0,55.4,29.90,SW,225,2.0,10.0,56,0.00,,,-99.99,Weather View 32 v60,2013-07-05 04:40:00,
2013-07-04 23:45:00,72.0,55.4,29.90,SSW,202,2.0,10.0,56,0.00,,,-99.99,Weather View 32 v60,2013-07-05 04:45:00,
2013-07-04 23:50:00,72.0,55.9,29.90,WSW,248,4.0,10.0,57,0.00,,,-99.99,Weather View 32 v60,2013-07-05 04:50:00,
2013-07-04 23:55:00,72.0,55.9,29.90,South,180,3.0,9.0,57,0.00,,,-99.99,Weather View 32 v60,2013-07-05 04:55:00,